Showing default

INTELSAT 515, 19772

Orbit data source: Space-Track

INTELSAT 515, 19772 is a payload satellite owned by INTELSAT (US) in GEO that was launched on Fri, 27 Jan 1989 UTC via an ARIANE 2 launch vehicle from the French Guiana (FRGUI). Payload-class satellites include a variety of spacecraft equipped with specific instruments for various scientific and technological missions. These include communications satellites like Starlink; space stations such as the ISS; scientific satellites like the Hubble; Earth observation satellites from companies like Planet Labs, Umbra, and HawkEye 360; GPS; miniature CubeSats for education and research; and military/defense satellites.

Not visible in the next 10 days
Identifier
19772, 1989-006A
Orbit
GEO
Last TLE update
12 hours ago
Origin
Manufacturer
Ford Ae
Mission
Non-operational Civil Communications
Bus & Motor
FS INTELSAT 5, STAR 37XF
Mass
1,981 kg wet, 884 kg dry
Launch date (UTC)
1989-01-27 (36 years ago)
Launch vehicle
ARIANE 2
Launch site
French Guiana (FRGUI)
Object type
Payload
Rocket body
Debris
Shape & HBR
Hex Poly + 2 Pan, 15.9 m
Radar Cross Section
18.961 m², Large (>1 m²)

Expand to show TLE details & history

TLE from 12 hours ago
0 INTELSAT 515
1 19772U 89006A   25181.83123028 -.00000238  00000-0  00000-0 0  9997
2 19772  14.9389 356.8219 0023764 114.9731 225.2107  0.99102993121133
Epoch: 2025-06-30T19:56Z
TLE epoch observation values (Epoch: 2025-06-30T19:56:58.296Z)
Latitude
-5.0695°
Longitude
119.06317°
Altitude
36,189.27 km
Speed
3.058 km/s
True Right ascension
22h 29m 45s
True Declination
-5° 03' 52"
Sunlit
Object was in daylight at epoch
Visualization orbit readout
Latitude
3.86988°
Longitude
-56.21643°
Altitude
36,051.336 km
Speed
3.067 km/s
Apparent Right ascension
10h 32m 14s
Apparent Declination
-1° 30' 16"
Sunlit
Object is in daylight
Visualization observer readout
Local Sidereal Time
19:59:31
Azimuth
308.077° NW
Elevation
-38.284°
Doppler factor
1
Orbital elements
Apogee altitude
36,219.414 km
Perigee altitude
36,017.436 km
Semi-major axis
42,496.562 km
Eccentricity
0.00238
Inclination
14.9389°
RAAN
356.8219°
Arg. of periapsis
114.9731°
True anomaly
Unknown
Mean anomaly
225.2107°
Eccentric anomaly
Unknown
Mean motion
0.24775 °/min
Orbital period
1,453.08 mins
BSTAR
0
Loading historical data...
19772 neighbors
Loading maneuver chart data...
Loading SW <> Apogee altitude chart data...
Loading historical data...
Loading historical data...
Loading historical data...
Loading historical data...
Loading historical data...
Loading historical data...
Loading historical data...

INTELSAT 515 Visibility

Observer location: undefined°, undefined°

INTELSAT 515 is likely not visible in the next few days
Span
Click to sort rows by Start time (UTC) header in descending order
Start Az.
Max El. time (UTC)
Max El. Az.
Max El.
End time (UTC)
End Az.
|